Regional Weather Roundup
Issued by NWS

Home | Current Version | Previous Version | Text Only | Print | Product List | Glossary On
Versions: 1 2 3 4 5 6 7 8 9 10 11 12 13 14 15 16 17 18 19 20 21 22 23 24 25 26 27 28 29 30 31 32 33 34 35 36 37 38 39 40 41 42 43 44 45 46 47 48 49 50
247
ASUS43 KLSX 232159
RWRMO

WEATHER SUMMARY FOR MISSOURI
NATIONAL WEATHER SERVICE SPRINGFIELD MO
500 PM CDT FRI JUN 23 2017

NOTE: "FAIR" INDICATES FEW OR NO CLOUDS BELOW 12,000 FEET WITH NO
       SIGNIFICANT WEATHER AND/OR OBSTRUCTIONS TO VISIBILITY.
       CURRENT SKY AND/OR WEATHER CONDITIONS ARE NOT AVAILABLE FOR
       CHILLICOTHE AND FARMINGTON.

MOZ001>031-035>038-043-044-053-054-232300-
...NORTHERN AND WESTERN MISSOURI...

CITY           SKY/WX    TMP DP  RH WIND       PRES   REMARKS
KANSAS CTY INT MOSUNNY   78  53  41 N12G17    29.97R
KANSAS C DTWN  SUNNY     81  52  36 N9G21     29.94R
LEE`S SUMMIT   SUNNY     81  50  33 N12G22    29.95S
ST JOSEPH      SUNNY     78  55  44 N14       29.97R
CHILLICOTHE      N/A     79  52  38 VRB7G17   29.93R
KIRKSVILLE     SUNNY     79  53  40 NW13      29.90R

$$
MOZ066>068-077>081-088>096-101>105-232300-
...SOUTHWEST MISSOURI...

CITY           SKY/WX    TMP DP  RH WIND       PRES   REMARKS
SPRINGFIELD    CLOUDY    80  63  55 N17G25    29.90S
JOPLIN         SUNNY     84  63  49 NE10G20   29.92R
BRANSON        PTSUNNY   68  68 100 NW6       29.91R

$$
MOZ032>034-039>042-045>050-055>058-069>072-232300-
...CENTRAL MISSOURI...

CITY           SKY/WX    TMP DP  RH WIND       PRES   REMARKS
COLUMBIA       MOSUNNY   81  55  40 N17       29.87S
JEFFERSON CITY CLOUDY    84  53  34 N14G25    29.85S
ROLLA          CLOUDY    75  62  64 NW6       29.88R
SEDALIA        CLOUDY    81  57  43 N10G21    29.91S
WARRENSBURG    PTSUNNY   79  50  36 NW13G20   29.92R
OSAGE BEACH    CLOUDY    82  58  43 N8G18     29.89S

$$
MOZ051-052-059>065-232300-
...EAST CENTRAL MISSOURI...

CITY           SKY/WX    TMP DP  RH WIND       PRES   REMARKS
ST LOUIS INTL  CLOUDY    83  56  39 NW10      29.82R
SPIRIT OF STL  CLOUDY    81  59  47 NW9       29.81R
ST CHARLES     CLOUDY    81  59  47 NW9       29.81R

$$
MOZ072>076-082>087-097>100-106>115-232300-
...SOUTH CENTRAL AND SOUTHEAST MISSOURI...

CITY           SKY/WX    TMP DP  RH WIND       PRES   REMARKS
CAPE GIRARDEAU MOSUNNY   86  69  56 NW16G22   29.74R HX  90
FARMINGTON     CLOUDY    78  67  68 N10       29.83R
POPLAR BLUFF   CLOUDY    82  70  66 NW12      29.78R
WEST PLAINS    CLOUDY    73  70  90 N8        29.88R

$$




USA.gov is the U.S. government's official web portal to all federal, state and local government web resources and services.